Consuelo Batey Anita airport

Jump to: basic info | weather | comments

Related pages: nearby airports | nearby navaids | notams | map

Basic information (top)

Codes: MDBA
Location: lon 18.683332, lat -69.383331, elev 150 ft / 46 m msl
Status: small_airport

Weather (top)

Current conditions (rec'd 2015/03/06 13:00Z):

MDBA 061300Z 09004KT 9999 BKN016 24/22 Q1020

Airport forecast for Las Américas International Airport 22nm (41km) SW (rec'd 2015/03/31 06:00Z):

TAF MDSD 310400Z 3106/0106 04008KT 9999 SCT018 SCT070 PROB30 0100/0106 7000 -SH FEW016CB BKN016 BKN070 

Latest comments (top)

No comments yet for Consuelo Batey Anita airport

More... (top)

See also NOTAMs and nearby airports and navaids, or visit the Consuelo Batey Anita airport page at the main OurAirports website..